Regional Weather Roundup
Issued by NWS

Home | Current Version | Previous Version | Graphics & Text | Print | Product List | Glossary On
Versions: 1 2 3 4 5 6 7 8 9 10 11 12 13 14 15 16 17 18 19 20 21 22 23 24 25 26 27 28 29 30 31 32 33 34 35 36 37 38 39 40 41 42 43 44 45 46 47 48 49 50
000
ASUS43 KBIS 170810
RWRND

NORTH DAKOTA REGIONAL WEATHER ROUNDUP
NATIONAL WEATHER SERVICE BISMARCK ND
200 AM CST SAT FEB 17 2018

NOTE: "FAIR" INDICATES FEW OR NO CLOUDS BELOW 12,000 FEET WITH NO
SIGNIFICANT WEATHER AND/OR OBSTRUCTIONS TO VISIBILITY.


NDZ001>003-009>011-017-170900-
NORTHWEST NORTH DAKOTA

CITY           SKY/WX    TMP DP  RH WIND       PRES   REMARKS
WILLISTON      MOCLDY    17  11  77 NW7       29.83R WCI   8
MINOT          PTCLDY    19  13  77 W13       29.77R WCI   6
MINOT AFB      MOCLDY    16  11  81 W9          N/A  WCI   5
$$

NDZ018>021-031>035-040>046-170900-
SOUTHWEST NORTH DAKOTA

CITY           SKY/WX    TMP DP  RH WIND       PRES   REMARKS
BISMARCK       CLEAR     16  14  92 W7        29.81F WCI   6
DICKINSON      PTCLDY    14  12  92 W12       29.74F WCI   0
GARRISON         N/A     15  11  83 NW10      29.77S WCI   2
HETTINGER ARPT PTCLDY    16  13  88 NW6       29.78F WCI   7
$$

NDZ004>008-012>016-024-026-027-054-170900-
NORTHEAST NORTH DAKOTA

CITY           SKY/WX    TMP DP  RH WIND       PRES   REMARKS
GRAND FORKS    FAIR      20  14  77 W8        29.77R WCI  10
GRND FRKS AFB  FAIR      20  13  74 NW8       29.76S WCI  10
DEVILS LAKE    CLOUDY    14  11  87 W9        29.75S WCI   2
$$

NDZ022-023-025-028>030-036>039-047>053-170900-
SOUTHEAST NORTH DAKOTA

CITY           SKY/WX    TMP DP  RH WIND       PRES   REMARKS
FARGO          FAIR      23  16  74 SW10      29.80R WCI  12
JAMESTOWN      CLEAR     20  15  81 W6        29.77S WCI  12
$$





USA.gov is the U.S. government's official web portal to all federal, state and local government web resources and services.